QPF
0.00 0.00 0.00 0.00 0.00 0.01 0.02 0.02 0.03 0.04 0.04 0.03 0.03 0.03 0.03 0.03 0.02 0.03 0.04 0.05 0.05 0.04 0.04 0.07 0.08 0.07 0.08 0.09 0.07 0.07 0.08 0.09 0.07 0.07 0.09 0.08 0.07 0.06 0.06 0.06 0.07 0.07 0.08
0.00 0.00 0.00 0.00 0.00 0.01 0.01 0.02 0.02 0.03 0.02 0.03 0.04 0.05 0.05 0.04 0.04 0.04 0.07 0.06 0.05 0.04 0.04 0.08 0.08 0.09 0.12 0.10 0.10 0.08 0.10 0.10 0.08 0.09 0.12 0.14 0.14 0.09 0.04 0.04 0.04 0.06 0.09
0.00 0.00 0.00 0.00 0.00 0.01 0.01 0.02 0.02 0.02 0.02 0.03 0.04 0.05 0.06 0.05 0.05 0.06 0.06 0.05 0.04 0.04 0.05 0.07 0.07 0.09 0.07 0.10 0.08 0.07 0.08 0.12 0.12 0.08 0.10 0.13 0.14 0.11 0.09 0.05 0.05 0.06 0.06
0.01 0.00 0.00 0.00 0.01 0.01 0.01 0.01 0.02 0.02 0.02 0.03 0.03 0.04 0.04 0.05 0.06 0.07 0.06 0.04 0.04 0.03 0.03 0.04 0.06 0.07 0.08 0.11 0.05 0.07 0.07 0.10 0.10 0.08 0.07 0.07 0.09 0.09 0.11 0.09 0.06 0.07 0.06
0.01 0.01 0.00 0.01 0.01 0.01 0.01 0.01 0.02 0.03 0.03 0.03 0.03 0.05 0.04 0.06 0.07 0.06 0.07 0.06 0.05 0.04 0.02 0.02 0.05 0.05 0.07 0.08 0.07 0.09 0.05 0.06 0.08 0.08 0.05 0.06 0.07 0.06 0.08 0.12 0.10 0.08 0.05
0.00 0.00 0.01 0.02 0.01 0.01 0.01 0.01 0.02 0.03 0.02 0.02 0.02 0.04 0.04 0.06 0.07 0.07 0.07 0.05 0.05 0.04 0.02 0.03 0.05 0.05 0.06 0.07 0.07 0.08 0.06 0.06 0.07 0.06 0.04 0.04 0.05 0.05 0.08 0.10 0.09 0.08 0.04
0.00 0.00 0.00 0.01 0.02 0.02 0.01 0.01 0.02 0.03 0.02 0.02 0.02 0.03 0.04 0.05 0.06 0.06 0.07 0.06 0.04 0.02 0.02 0.04 0.04 0.05 0.06 0.06 0.07 0.08 0.09 0.08 0.06 0.04 0.04 0.03 0.03 0.02 0.03 0.05 0.06 0.07 0.06
0.00 0.00 0.00 0.00 0.01 0.01 0.01 0.01 0.02 0.03 0.03 0.03 0.02 0.04 0.05 0.05 0.05 0.06 0.06 0.05 0.04 0.03 0.05 0.05 0.03 0.03 0.03 0.04 0.06 0.07 0.07 0.07 0.05 0.03 0.04 0.03 0.02 0.02 0.02 0.03 0.05 0.06 0.07
0.01 0.00 0.00 0.01 0.01 0.00 0.00 0.01 0.02 0.02 0.04 0.04 0.04 0.04 0.05 0.05 0.05 0.05 0.05 0.05 0.04 0.03 0.05 0.05 0.04 0.03 0.04 0.05 0.06 0.05 0.07 0.06 0.04 0.04 0.05 0.04 0.03 0.02 0.02 0.03 0.04 0.06 0.07
0.01 0.01 0.01 0.00 0.01 0.01 0.01 0.01 0.02 0.02 0.03 0.04 0.05 0.05 0.05 0.05 0.06 0.05 0.03 0.03 0.04 0.04 0.07 0.08 0.05 0.04 0.05 0.05 0.06 0.05 0.06 0.06 0.06 0.06 0.08 0.06 0.03 0.03 0.03 0.03 0.02 0.03 0.04
0.00 0.01 0.01 0.01 0.01 0.01 0.01 0.01 0.02 0.03 0.03 0.03 0.04 0.06 0.05 0.05 0.06 0.06 0.06 0.06 0.06 0.06 0.08 0.08 0.07 0.06 0.05 0.06 0.07 0.05 0.07 0.07 0.08 0.05 0.05 0.05 0.04 0.04 0.03 0.03 0.03 0.03 0.04
0.00 0.01 0.01 0.01 0.01 0.02 0.02 0.02 0.02 0.01 0.01 0.02 0.04 0.05 0.05 0.07 0.07 0.06 0.07 0.08 0.08 0.08 0.09 0.10 0.09 0.07 0.08 0.09 0.07 0.04 0.06 0.06 0.06 0.04 0.05 0.05 0.04 0.04 0.03 0.03 0.03 0.03 0.04
0.01 0.00 0.01 0.02 0.02 0.02 0.03 0.04 0.03 0.02 0.02 0.03 0.04 0.05 0.05 0.05 0.06 0.07 0.08 0.09 0.09 0.10 0.10 0.10 0.10 0.09 0.08 0.07 0.07 0.06 0.06 0.07 0.06 0.04 0.03 0.03 0.04 0.04 0.04 0.03 0.02 0.02 0.02
0.01 0.01 0.01 0.02 0.02 0.02 0.03 0.04 0.03 0.02 0.03 0.03 0.04 0.05 0.05 0.05 0.05 0.07 0.08 0.08 0.08 0.09 0.08 0.07 0.08 0.09 0.10 0.08 0.08 0.08 0.07 0.07 0.05 0.04 0.03 0.02 0.02 0.03 0.05 0.05 0.03 0.03 0.03
0.02 0.02 0.01 0.01 0.01 0.02 0.03 0.02 0.02 0.02 0.02 0.02 0.03 0.04 0.05 0.06 0.07 0.07 0.07 0.08 0.08 0.08 0.08 0.08 0.09 0.09 0.08 0.06 0.08 0.08 0.07 0.08 0.06 0.04 0.02 0.01 0.02 0.03 0.03 0.02 0.02 0.03 0.03
0.02 0.02 0.01 0.01 0.01 0.02 0.03 0.03 0.03 0.03 0.04 0.03 0.02 0.03 0.05 0.07 0.07 0.07 0.08 0.09 0.10 0.10 0.09 0.08 0.07 0.08 0.06 0.05 0.06 0.07 0.09 0.08 0.07 0.06 0.05 0.04 0.02 0.02 0.01 0.00 0.01 0.02 0.03
0.02 0.03 0.02 0.02 0.02 0.02 0.03 0.04 0.04 0.05 0.06 0.05 0.05 0.06 0.06 0.06 0.07 0.07 0.09 0.09 0.10 0.10 0.09 0.08 0.09 0.09 0.08 0.08 0.06 0.05 0.06 0.08 0.08 0.06 0.06 0.03 0.02 0.02 0.01 0.01 0.02 0.01 0.01
0.01 0.02 0.02 0.02 0.03 0.03 0.05 0.05 0.06 0.06 0.05 0.06 0.06 0.06 0.06 0.05 0.07 0.08 0.08 0.08 0.08 0.08 0.07 0.07 0.08 0.10 0.10 0.10 0.08 0.06 0.04 0.06 0.05 0.05 0.05 0.04 0.04 0.03 0.04 0.03 0.02 0.01 0.01
0.01 0.01 0.01 0.01 0.02 0.03 0.05 0.06 0.06 0.06 0.05 0.05 0.06 0.05 0.06 0.07 0.08 0.08 0.09 0.08 0.10 0.10 0.10 0.09 0.10 0.09 0.08 0.07 0.07 0.07 0.04 0.04 0.05 0.04 0.04 0.04 0.04 0.04 0.05 0.04 0.02 0.02 0.02
0.01 0.02 0.02 0.01 0.02 0.03 0.05 0.05 0.06 0.06 0.05 0.06 0.06 0.06 0.07 0.08 0.08 0.08 0.12 0.12 0.13 0.13 0.13 0.12 0.11 0.10 0.09 0.07 0.06 0.06 0.05 0.06 0.06 0.06 0.06 0.05 0.05 0.05 0.04 0.04 0.03 0.02 0.02
0.02 0.02 0.02 0.03 0.03 0.03 0.03 0.04 0.04 0.05 0.06 0.07 0.09 0.10 0.10 0.08 0.07 0.10 0.16 0.19 0.18 0.14 0.13 0.12 0.12 0.12 0.11 0.10 0.10 0.07 0.06 0.06 0.07 0.08 0.07 0.05 0.04 0.04 0.04 0.03 0.03 0.03 0.03
0.02 0.02 0.03 0.04 0.05 0.04 0.03 0.03 0.03 0.02 0.03 0.05 0.08 0.09 0.10 0.10 0.09 0.08 0.12 0.16 0.21 0.20 0.15 0.12 0.12 0.12 0.10 0.08 0.08 0.07 0.05 0.06 0.07 0.06 0.06 0.05 0.04 0.03 0.04 0.04 0.03 0.03 0.03
0.02 0.02 0.03 0.06 0.08 0.03 0.03 0.02 0.02 0.03 0.04 0.05 0.06 0.08 0.10 0.12 0.10 0.08 0.10 0.14 0.16 0.17 0.15 0.13 0.12 0.11 0.10 0.08 0.06 0.05 0.04 0.04 0.04 0.04 0.04 0.04 0.05 0.04 0.03 0.04 0.04 0.03 0.02
0.03 0.03 0.03 0.04 0.04 0.03 0.02 0.02 0.02 0.03 0.04 0.06 0.08 0.11 0.15 0.15 0.14 0.13 0.12 0.11 0.10 0.11 0.11 0.13 0.12 0.11 0.11 0.08 0.06 0.05 0.03 0.02 0.02 0.02 0.03 0.04 0.03 0.03 0.02 0.02 0.02 0.02 0.01
0.04 0.04 0.04 0.03 0.02 0.01 0.02 0.02 0.03 0.04 0.04 0.05 0.08 0.12 0.16 0.17 0.12 0.10 0.10 0.10 0.10 0.11 0.13 0.13 0.12 0.11 0.11 0.09 0.09 0.07 0.05 0.04 0.03 0.03 0.02 0.02 0.03 0.04 0.03 0.03 0.03 0.02 0.02
0.03 0.04 0.04 0.03 0.02 0.01 0.02 0.02 0.03 0.03 0.03 0.03 0.05 0.07 0.09 0.11 0.11 0.11 0.10 0.09 0.11 0.13 0.14 0.14 0.11 0.10 0.10 0.10 0.07 0.05 0.05 0.04 0.04 0.04 0.04 0.04 0.04 0.04 0.04 0.04 0.04 0.04 0.04
MSLP
1004.91 1005.43 1005.97 1006.50 1007.01 1007.50 1007.99 1008.49 1009.02 1009.57 1010.12 1010.66 1011.16 1011.59 1011.95 1012.23 1012.47 1012.68 1012.89 1013.12 1013.40 1013.72 1014.07 1014.45 1014.83 1015.21 1015.57 1015.91 1016.25 1016.60 1016.94 1017.30 1017.65 1017.98 1018.27 1018.51 1018.68 1018.78 1018.82 1018.83 1018.83 1018.87 1018.96
1004.23 1004.78 1005.35 1005.93 1006.48 1007.03 1007.58 1008.15 1008.75 1009.38 1010.01 1010.61 1011.16 1011.61 1011.96 1012.21 1012.38 1012.53 1012.68 1012.86 1013.12 1013.44 1013.82 1014.24 1014.67 1015.10 1015.50 1015.88 1016.23 1016.58 1016.93 1017.29 1017.65 1018.00 1018.32 1018.58 1018.77 1018.88 1018.90 1018.88 1018.83 1018.81 1018.83
1003.57 1004.13 1004.73 1005.33 1005.92 1006.50 1007.10 1007.72 1008.38 1009.07 1009.77 1010.43 1011.01 1011.49 1011.84 1012.07 1012.21 1012.31 1012.41 1012.56 1012.80 1013.12 1013.52 1013.98 1014.45 1014.91 1015.33 1015.72 1016.07 1016.40 1016.73 1017.08 1017.45 1017.81 1018.16 1018.46 1018.69 1018.83 1018.88 1018.86 1018.80 1018.73 1018.70
1002.91 1003.49 1004.11 1004.73 1005.34 1005.94 1006.55 1007.20 1007.89 1008.62 1009.36 1010.07 1010.69 1011.20 1011.56 1011.79 1011.92 1012.00 1012.08 1012.21 1012.44 1012.77 1013.19 1013.66 1014.16 1014.64 1015.07 1015.45 1015.78 1016.09 1016.40 1016.73 1017.09 1017.46 1017.84 1018.19 1018.47 1018.67 1018.77 1018.79 1018.73 1018.65 1018.59
1002.28 1002.87 1003.51 1004.15 1004.77 1005.37 1005.98 1006.62 1007.32 1008.05 1008.81 1009.55 1010.20 1010.73 1011.13 1011.37 1011.51 1011.59 1011.67 1011.81 1012.04 1012.38 1012.82 1013.31 1013.82 1014.31 1014.74 1015.11 1015.43 1015.71 1015.99 1016.29 1016.64 1017.03 1017.43 1017.83 1018.17 1018.44 1018.60 1018.67 1018.65 1018.58 1018.49
1001.70 1002.30 1002.96 1003.61 1004.22 1004.81 1005.40 1006.01 1006.69 1007.41 1008.16 1008.90 1009.57 1010.12 1010.54 1010.82 1010.99 1011.10 1011.20 1011.36 1011.61 1011.97 1012.41 1012.93 1013.45 1013.95 1014.38 1014.74 1015.04 1015.30 1015.56 1015.85 1016.19 1016.58 1017.01 1017.44 1017.84 1018.17 1018.40 1018.52 1018.54 1018.49 1018.40
1001.19 1001.81 1002.48 1003.12 1003.73 1004.29 1004.84 1005.42 1006.05 1006.73 1007.45 1008.17 1008.83 1009.41 1009.85 1010.17 1010.37 1010.52 1010.66 1010.86 1011.13 1011.51 1011.98 1012.51 1013.05 1013.56 1014.00 1014.37 1014.67 1014.93 1015.18 1015.46 1015.79 1016.18 1016.62 1017.08 1017.52 1017.89 1018.17 1018.34 1018.41 1018.38 1018.30
1000.80 1001.42 1002.09 1002.73 1003.31 1003.84 1004.35 1004.87 1005.43 1006.06 1006.72 1007.40 1008.05 1008.62 1009.08 1009.43 1009.68 1009.87 1010.06 1010.29 1010.60 1011.01 1011.50 1012.05 1012.61 1013.14 1013.61 1014.01 1014.33 1014.60 1014.85 1015.13 1015.46 1015.85 1016.29 1016.75 1017.20 1017.60 1017.91 1018.12 1018.21 1018.21 1018.14
1000.55 1001.15 1001.80 1002.42 1002.97 1003.46 1003.92 1004.38 1004.88 1005.43 1006.03 1006.65 1007.26 1007.81 1008.27 1008.64 1008.93 1009.16 1009.39 1009.66 1010.01 1010.45 1010.96 1011.54 1012.13 1012.70 1013.21 1013.64 1014.00 1014.30 1014.58 1014.86 1015.19 1015.56 1015.98 1016.43 1016.87 1017.27 1017.59 1017.81 1017.93 1017.95 1017.89
1000.44 1001.01 1001.62 1002.21 1002.72 1003.17 1003.57 1003.97 1004.39 1004.87 1005.39 1005.94 1006.49 1007.01 1007.45 1007.82 1008.13 1008.39 1008.66 1008.97 1009.35 1009.82 1010.37 1010.97 1011.60 1012.21 1012.76 1013.24 1013.65 1013.99 1014.30 1014.61 1014.93 1015.29 1015.68 1016.09 1016.50 1016.88 1017.19 1017.42 1017.55 1017.59 1017.55
1000.45 1000.98 1001.54 1002.08 1002.54 1002.95 1003.30 1003.64 1004.00 1004.39 1004.84 1005.31 1005.79 1006.24 1006.65 1007.01 1007.31 1007.59 1007.89 1008.23 1008.64 1009.13 1009.71 1010.35 1011.01 1011.65 1012.26 1012.79 1013.25 1013.64 1013.99 1014.31 1014.63 1014.97 1015.33 1015.70 1016.07 1016.41 1016.71 1016.93 1017.08 1017.14 1017.13
1000.55 1001.01 1001.52 1002.01 1002.44 1002.80 1003.11 1003.41 1003.70 1004.03 1004.39 1004.77 1005.16 1005.55 1005.90 1006.22 1006.51 1006.80 1007.11 1007.47 1007.90 1008.42 1009.02 1009.69 1010.37 1011.05 1011.70 1012.28 1012.78 1013.22 1013.60 1013.93 1014.26 1014.58 1014.91 1015.24 1015.57 1015.88 1016.16 1016.39 1016.55 1016.65 1016.69
1000.66 1001.08 1001.54 1001.99 1002.39 1002.73 1003.02 1003.28 1003.53 1003.79 1004.06 1004.36 1004.65 1004.95 1005.23 1005.50 1005.76 1006.04 1006.36 1006.73 1007.19 1007.73 1008.35 1009.03 1009.73 1010.43 1011.10 1011.71 1012.25 1012.72 1013.12 1013.48 1013.80 1014.12 1014.42 1014.73 1015.04 1015.33 1015.60 1015.84 1016.03 1016.18 1016.27
1000.74 1001.13 1001.57 1002.00 1002.40 1002.74 1003.03 1003.28 1003.49 1003.69 1003.89 1004.09 1004.29 1004.49 1004.69 1004.89 1005.12 1005.38 1005.69 1006.08 1006.55 1007.11 1007.73 1008.42 1009.13 1009.83 1010.50 1011.13 1011.68 1012.17 1012.59 1012.96 1013.30 1013.61 1013.92 1014.22 1014.51 1014.81 1015.09 1015.35 1015.58 1015.78 1015.94
1000.75 1001.14 1001.58 1002.04 1002.46 1002.84 1003.15 1003.41 1003.60 1003.76 1003.88 1003.98 1004.08 1004.18 1004.29 1004.43 1004.61 1004.85 1005.16 1005.56 1006.04 1006.60 1007.23 1007.90 1008.60 1009.29 1009.95 1010.56 1011.12 1011.61 1012.05 1012.44 1012.79 1013.12 1013.44 1013.75 1014.06 1014.37 1014.67 1014.96 1015.23 1015.48 1015.70
1000.67 1001.10 1001.59 1002.10 1002.59 1003.02 1003.38 1003.66 1003.85 1003.96 1004.02 1004.03 1004.03 1004.03 1004.05 1004.12 1004.26 1004.48 1004.79 1005.19 1005.68 1006.24 1006.86 1007.52 1008.19 1008.84 1009.47 1010.06 1010.60 1011.09 1011.54 1011.95 1012.33 1012.69 1013.03 1013.37 1013.71 1014.04 1014.37 1014.68 1014.98 1015.26 1015.52
1000.51 1001.02 1001.59 1002.18 1002.76 1003.27 1003.69 1004.00 1004.19 1004.28 1004.27 1004.21 1004.11 1004.02 1003.97 1003.98 1004.08 1004.28 1004.59 1005.00 1005.49 1006.05 1006.65 1007.28 1007.91 1008.52 1009.10 1009.65 1010.16 1010.64 1011.09 1011.52 1011.93 1012.33 1012.72 1013.09 1013.45 1013.81 1014.14 1014.46 1014.77 1015.05 1015.31
1000.33 1000.92 1001.58 1002.28 1002.95 1003.54 1004.03 1004.38 1004.58 1004.64 1004.59 1004.46 1004.29 1004.12 1004.01 1003.98 1004.05 1004.25 1004.56 1004.97 1005.47 1006.02 1006.61 1007.19 1007.77 1008.33 1008.85 1009.35 1009.83 1010.29 1010.74 1011.18 1011.62 1012.05 1012.47 1012.87 1013.25 1013.60 1013.93 1014.23 1014.50 1014.74 1014.95
1000.18 1000.85 1001.60 1002.38 1003.14 1003.81 1004.36 1004.74 1004.95 1004.99 1004.90 1004.72 1004.50 1004.29 1004.14 1004.09 1004.16 1004.36 1004.68 1005.11 1005.61 1006.14 1006.70 1007.24 1007.76 1008.25 1008.71 1009.15 1009.58 1010.01 1010.45 1010.90 1011.36 1011.81 1012.24 1012.65 1013.03 1013.35 1013.64 1013.87 1014.06 1014.22 1014.35
1000.13 1000.86 1001.67 1002.51 1003.33 1004.05 1004.62 1005.03 1005.24 1005.27 1005.16 1004.96 1004.72 1004.49 1004.34 1004.29 1004.38 1004.61 1004.95 1005.39 1005.88 1006.41 1006.93 1007.42 1007.87 1008.29 1008.67 1009.05 1009.42 1009.81 1010.23 1010.66 1011.12 1011.56 1011.99 1012.38 1012.72 1012.99 1013.19 1013.33 1013.42 1013.46 1013.47
1000.27 1001.01 1001.83 1002.69 1003.52 1004.25 1004.83 1005.23 1005.44 1005.47 1005.36 1005.16 1004.93 1004.73 1004.61 1004.60 1004.73 1004.99 1005.36 1005.81 1006.31 1006.81 1007.29 1007.72 1008.10 1008.44 1008.74 1009.04 1009.35 1009.69 1010.06 1010.46 1010.88 1011.30 1011.69 1012.03 1012.30 1012.49 1012.59 1012.61 1012.57 1012.48 1012.36
1000.64 1001.35 1002.14 1002.96 1003.75 1004.45 1005.01 1005.39 1005.59 1005.63 1005.54 1005.37 1005.18 1005.03 1004.97 1005.03 1005.21 1005.53 1005.93 1006.40 1006.89 1007.37 1007.80 1008.17 1008.47 1008.72 1008.94 1009.16 1009.39 1009.65 1009.96 1010.31 1010.67 1011.03 1011.36 1011.63 1011.82 1011.91 1011.89 1011.79 1011.62 1011.40 1011.16
1001.29 1001.92 1002.64 1003.38 1004.10 1004.73 1005.24 1005.59 1005.77 1005.82 1005.76 1005.65 1005.53 1005.47 1005.49 1005.63 1005.89 1006.26 1006.70 1007.18 1007.67 1008.11 1008.49 1008.79 1009.02 1009.18 1009.31 1009.44 1009.58 1009.76 1009.99 1010.26 1010.55 1010.83 1011.08 1011.27 1011.36 1011.35 1011.24 1011.03 1010.75 1010.43 1010.10
1002.23 1002.76 1003.37 1004.01 1004.63 1005.17 1005.60 1005.91 1006.09 1006.15 1006.14 1006.09 1006.06 1006.09 1006.21 1006.44 1006.78 1007.21 1007.69 1008.18 1008.65 1009.06 1009.39 1009.62 1009.77 1009.85 1009.89 1009.93 1009.98 1010.08 1010.22 1010.40 1010.61 1010.81 1010.97 1011.07 1011.08 1010.99 1010.80 1010.52 1010.17 1009.79 1009.41
1003.42 1003.86 1004.36 1004.88 1005.39 1005.83 1006.19 1006.45 1006.61 1006.70 1006.73 1006.76 1006.82 1006.95 1007.17 1007.49 1007.90 1008.37 1008.88 1009.38 1009.83 1010.21 1010.49 1010.66 1010.74 1010.74 1010.71 1010.67 1010.65 1010.66 1010.72 1010.81 1010.94 1011.06 1011.15 1011.18 1011.13 1010.99 1010.75 1010.44 1010.07 1009.68 1009.29
1004.81 1005.17 1005.57 1005.99 1006.40 1006.75 1007.04 1007.26 1007.41 1007.51 1007.59 1007.69 1007.83 1008.04 1008.35 1008.74 1009.20 1009.72 1010.24 1010.74 1011.17 1011.51 1011.75 1011.87 1011.90 1011.85 1011.77 1011.67 1011.58 1011.53 1011.53 1011.56 1011.62 1011.68 1011.71 1011.70 1011.62 1011.46 1011.23 1010.92 1010.57 1010.21 1009.85
Thickness
5822 5819 5815 5811 5805 5799 5793 5789 5785 5781 5777 5774 5770 5767 5766 5766 5766 5765 5763 5761 5760 5759 5758 5758 5756 5755 5754 5752 5750 5748 5746 5746 5747 5743 5740 5742 5744 5744 5743 5742 5741 5739 5737
5818 5816 5813 5809 5804 5798 5793 5789 5785 5781 5778 5775 5773 5770 5767 5766 5765 5765 5762 5761 5759 5758 5758 5757 5755 5754 5752 5751 5750 5748 5745 5745 5746 5740 5734 5730 5732 5738 5743 5741 5739 5739 5737
5818 5815 5811 5808 5804 5799 5794 5791 5787 5783 5779 5777 5773 5770 5766 5764 5762 5761 5760 5760 5759 5757 5757 5756 5755 5753 5752 5749 5748 5747 5744 5741 5743 5743 5736 5727 5724 5729 5735 5738 5739 5737 5736
5825 5818 5812 5808 5805 5801 5798 5793 5788 5784 5780 5777 5772 5768 5762 5759 5760 5761 5760 5759 5759 5757 5756 5755 5754 5753 5751 5749 5748 5748 5746 5743 5739 5740 5741 5739 5735 5728 5724 5731 5735 5736 5734
5829 5822 5817 5811 5808 5805 5800 5795 5789 5784 5781 5777 5774 5769 5765 5763 5763 5762 5760 5758 5757 5757 5756 5755 5754 5752 5751 5750 5748 5747 5746 5744 5741 5739 5738 5737 5737 5735 5727 5722 5727 5731 5733
5835 5827 5821 5814 5809 5807 5802 5796 5789 5784 5782 5778 5775 5771 5767 5765 5762 5760 5758 5756 5756 5756 5756 5755 5753 5752 5750 5749 5748 5747 5745 5743 5742 5740 5739 5737 5734 5732 5730 5725 5724 5725 5730
5837 5828 5821 5814 5809 5806 5803 5798 5791 5785 5782 5779 5776 5773 5770 5767 5764 5761 5759 5757 5756 5755 5756 5756 5753 5751 5750 5749 5748 5745 5744 5743 5741 5739 5739 5739 5738 5738 5735 5729 5726 5725 5729
5837 5831 5825 5818 5813 5809 5805 5799 5792 5786 5783 5780 5776 5774 5771 5768 5766 5764 5762 5760 5759 5759 5759 5756 5753 5751 5749 5749 5747 5745 5744 5742 5740 5740 5738 5737 5738 5738 5736 5732 5727 5721 5723
5837 5833 5827 5821 5816 5811 5807 5802 5795 5789 5785 5781 5777 5774 5772 5770 5768 5767 5764 5763 5762 5762 5760 5756 5753 5751 5749 5748 5746 5744 5743 5741 5740 5739 5738 5736 5737 5738 5737 5735 5732 5723 5716
5835 5831 5826 5823 5819 5814 5809 5804 5797 5791 5787 5783 5779 5776 5773 5771 5769 5767 5765 5763 5762 5761 5759 5756 5753 5751 5749 5747 5745 5743 5742 5740 5738 5738 5736 5735 5736 5737 5736 5735 5733 5730 5723
5830 5828 5826 5825 5821 5816 5809 5803 5797 5792 5787 5784 5780 5777 5774 5771 5769 5766 5766 5763 5761 5759 5757 5755 5752 5750 5748 5747 5744 5743 5741 5739 5737 5737 5736 5734 5734 5733 5734 5733 5732 5729 5727
5830 5829 5826 5822 5817 5812 5809 5803 5798 5793 5789 5786 5782 5778 5775 5772 5768 5766 5765 5763 5760 5758 5756 5754 5751 5749 5747 5746 5744 5741 5741 5739 5737 5736 5734 5733 5733 5731 5731 5730 5729 5728 5727
5822 5822 5819 5816 5812 5810 5808 5802 5798 5795 5791 5787 5782 5778 5775 5771 5768 5767 5764 5762 5759 5756 5755 5753 5749 5747 5746 5745 5743 5742 5741 5739 5738 5736 5734 5733 5732 5729 5728 5727 5726 5726 5726
5813 5812 5809 5808 5807 5806 5804 5801 5798 5796 5791 5786 5782 5777 5775 5772 5769 5767 5764 5762 5759 5755 5753 5751 5750 5747 5745 5744 5742 5741 5739 5738 5737 5736 5735 5733 5731 5729 5727 5726 5724 5723 5721
5803 5803 5803 5802 5802 5800 5799 5798 5796 5793 5790 5785 5781 5777 5775 5772 5770 5766 5764 5761 5758 5756 5753 5750 5748 5747 5744 5743 5741 5739 5738 5736 5734 5734 5733 5732 5730 5728 5726 5725 5722 5721 5718
5796 5797 5798 5797 5796 5795 5794 5793 5791 5790 5787 5782 5779 5777 5773 5770 5768 5765 5762 5759 5756 5754 5752 5749 5747 5745 5744 5743 5741 5739 5737 5734 5732 5730 5729 5729 5727 5725 5724 5722 5721 5719 5716
5791 5792 5793 5792 5791 5791 5790 5788 5787 5786 5783 5779 5777 5775 5772 5768 5766 5764 5761 5758 5754 5752 5749 5747 5746 5743 5742 5741 5739 5737 5736 5733 5732 5730 5727 5727 5727 5725 5723 5720 5718 5716 5715
5787 5788 5790 5789 5789 5789 5787 5785 5784 5780 5778 5775 5774 5772 5770 5767 5764 5761 5758 5756 5753 5750 5748 5746 5744 5742 5740 5737 5735 5733 5732 5731 5730 5729 5727 5724 5724 5724 5721 5718 5716 5714 5713
5784 5785 5787 5787 5786 5784 5782 5779 5776 5774 5771 5769 5768 5768 5766 5763 5761 5758 5756 5754 5751 5748 5746 5745 5742 5740 5737 5734 5732 5729 5728 5727 5726 5726 5725 5723 5721 5720 5718 5715 5712 5710 5710
5780 5780 5782 5782 5779 5778 5777 5773 5769 5767 5764 5764 5764 5764 5762 5760 5757 5755 5754 5752 5749 5747 5745 5742 5741 5738 5735 5732 5729 5726 5726 5723 5722 5722 5722 5720 5718 5716 5714 5711 5709 5705 5705
5771 5773 5773 5772 5770 5771 5769 5765 5763 5761 5761 5761 5760 5758 5757 5755 5753 5752 5750 5748 5745 5743 5741 5739 5738 5737 5735 5729 5726 5723 5723 5721 5720 5719 5718 5716 5714 5711 5709 5707 5706 5703 5701
5761 5763 5762 5761 5761 5762 5761 5757 5756 5757 5757 5756 5754 5752 5752 5751 5750 5747 5745 5743 5741 5737 5736 5734 5733 5734 5732 5728 5724 5720 5719 5718 5717 5716 5715 5713 5710 5707 5704 5702 5701 5699 5696
5750 5753 5753 5751 5751 5752 5753 5749 5750 5752 5750 5748 5747 5747 5746 5745 5744 5742 5739 5737 5735 5733 5732 5730 5729 5729 5728 5725 5721 5717 5714 5712 5712 5711 5709 5707 5704 5701 5699 5697 5694 5692 5689
5740 5742 5742 5741 5741 5743 5743 5743 5744 5745 5743 5741 5740 5740 5740 5738 5737 5735 5734 5731 5730 5730 5729 5727 5725 5725 5723 5719 5716 5713 5709 5706 5704 5703 5702 5700 5698 5695 5693 5691 5688 5685 5683
5730 5732 5731 5731 5732 5734 5735 5736 5737 5737 5735 5734 5734 5733 5733 5731 5729 5726 5725 5724 5722 5722 5723 5723 5721 5719 5716 5714 5711 5709 5706 5703 5700 5697 5695 5693 5690 5687 5685 5684 5682 5680 5677
5720 5721 5721 5722 5723 5724 5725 5728 5730 5730 5728 5727 5726 5726 5726 5724 5722 5719 5716 5714 5714 5714 5714 5714 5713 5712 5709 5707 5704 5702 5699 5696 5693 5690 5688 5685 5683 5681 5678 5676 5674 5672 5669